Regional Weather Roundup
Issued by NWS

Home | Current Version | Previous Version | Graphics & Text | Print | Product List | Glossary On
Versions: 1 2 3 4 5 6 7 8 9 10 11 12 13 14 15 16 17 18 19 20 21 22 23 24 25 26 27
000
ASUS45 KTFX 150210
RWRMT
MONTANA REGIONAL WEATHER ROUNDUP
NATIONAL WEATHER SERVICE GREAT FALLS MT
700 PM MST THU DEC 14 2017

NOTE: "FAIR" INDICATES FEW OR NO CLOUDS BELOW 12000 FEET WITH NO
SIGNIFICANT WEATHER AND/OR OBSTRUCTIONS TO VISIBILITY.

MTZ001>007-043-150300-
WEST OF THE DIVIDE

CITY           SKY/WX    TMP DP  RH WIND       PRES   REMARKS
KALISPELL      CLOUDY    28  25  88 CALM      30.39R
MISSOULA       FAIR      27  24  89 E3        30.35F
BUTTE          FAIR      14  11  87 S3        30.27S
MULLAN PASS    FAIR      26  22  84 SW6       30.26F WCI  19
ANACONDA         N/A     18  16  93 CALM      30.30R
DEER LODGE       N/A     16  14  93 SE3       30.33S
EUREKA           N/A     25  21  86 MISG      30.40F
HAMILTON         N/A     21  18  86 CALM      30.35S
LIBBY            N/A     28  25  86 CALM      30.38F
PLAINS           N/A     31  25  78 CALM      30.37
RONAN            N/A     30  26  85 CALM      30.37F
$$

MTZ008-052>055-150300-
SOUTHWEST MONTANA

CITY           SKY/WX    TMP DP  RH WIND       PRES   REMARKS
BOZEMAN        FOG       14  12  92 CALM      30.28F VSB<1/4
DILLON         FAIR      15  11  83 CALM      30.28S
W YELLOWSTONE  FOG       14  14 100 CALM      30.32R VSB 1
ENNIS          CLOUDY    27  16  63 S7        30.30F WCI  19
THREE FORKS      N/A     11   7  84 CALM      30.24S VSB 0
TWIN BRIDGES     N/A     22  14  71 CALM      30.24
$$

MTZ009-010-012-014-046-048-049-054-150300-
EAST SLOPES AND CENTRAL MONTANA

CITY           SKY/WX    TMP DP  RH WIND       PRES   REMARKS
CUT BANK       FAIR      38  17  42 W17       30.03F WCI  28
GREAT FALLS    FAIR      36  19  50 SW21      30.09F WCI  25
MALMSTROM AFB  FAIR      36  21  55 SW21      30.09F WCI  25
HELENA         MOCLDY    21  20  96 CALM      30.26F
BOWMANS CRNR   FAIR      27  21  76 S20       30.10F WCI  14
CHOTEAU          N/A     45  16  31 W15       30.06F
FAIRFIELD      FAIR      32  19  57 MISG      30.07F
POWER          FAIR      30  19  63 SW10      30.07F WCI  21
RAYNESFORD     FAIR      42  16  35 SW15      30.09F
ULM            FAIR      35  21  55 S14       30.12F WCI  26
$$

MTZ011-013-016-021-045-047-050-051-150300-
NORTH CENTRAL MONTANA

CITY           SKY/WX    TMP DP  RH WIND       PRES   REMARKS
HAVRE          FAIR      27  21  78 SW8       30.04F WCI  19
LEWISTOWN      FAIR      33  20  58 SW5       30.09S
N BAR RANCH    FAIR      30  14  51 W8        30.10F WCI  23
CHINOOK          N/A     25  19  80 CALM      30.05F
DENTON         FAIR      31  21  66 MISG      30.05F
GEYSER         FAIR      39  17  41 W13       30.07F WCI  31
GRASS RANGE    FAIR      30  19  63 SW12      30.05F WCI  21
STANFORD       FAIR      32  17  55 CALM      30.08S
WINIFRED       FAIR      33  20  60 W6        30.06F WCI  27
$$

MTZ017>020-022>027-061-062-150300-
NORTHEAST MONTANA

CITY           SKY/WX    TMP DP  RH WIND       PRES   REMARKS
GLASGOW        FAIR      25  20  81 W6        30.07F WCI  18
GLENDIVE       FAIR      22  19  89 W7        30.11F WCI  13
JORDAN           N/A     16  12  84 W5        30.09F
SIDNEY         FAIR      30  23  75 W12       30.09F WCI  20
WOLF POINT     FAIR      25  19  78 CALM      30.10F
MALTA          CLEAR     19  16  86 CALM      30.08F
PLENTYWOOD       N/A     27  21  80 CALM      30.05F
POPLAR           N/A     25  19  80 SW3       30.09F
SCOBEY           N/A     24  15  68 CALM      30.03F
$$

MTZ028>42-056>058-150300-
SOUTHCENTRAL AND SOUTHEAST MONTANA

CITY           SKY/WX    TMP DP  RH WIND       PRES   REMARKS
BAKER          FAIR      23  19  85 W5        30.11F
BILLINGS       FAIR      37  21  52 SW12      30.12F WCI  29
LIVINGSTON     FAIR      34  22  61 W15       30.18F WCI  24
MILES CITY     FAIR      28  21  75 W5        30.12F
BIG TIMBER     CLEAR     36  18  48 SW30G38   30.12F WCI  22
EKALAKA          N/A     26  17  68 W7        30.06F WCI  18
FORSYTH          N/A     30  21  69 CALM      30.11F
LAUREL           N/A     32  19  59 SW8       30.13F WCI  25
$$

REGIONAL REPORTS...DAKOTAS

CITY           SKY/WX    TMP DP  RH WIND       PRES   REMARKS
WILLISTON      FAIR      27  22  81 W6        30.07F WCI  20
MINOT          CLOUDY    33  23  66 W14       30.02F WCI  23
DICKINSON      FAIR      24  20  84 W9        30.05F WCI  14
BEACH          FAIR      23  19  86 SW8       30.12F WCI  14
CROSBY         CLOUDY    28  23  80 NW9       30.06F WCI  20
TIOGA          CLOUDY    30  28  93 N9        30.05S WCI  22
WATFORD CITY   FAIR      28  23  80 W9        30.07F WCI  20
BISMARCK       CLOUDY    35  25  66 NW6       30.07F WCI  30
GRAND FORKS    FLURRIES  20  17  88 E3        30.04R
FARGO          CLOUDY    23  21  92 CALM      30.02F
BUFFALO SD       N/A     23  19  85 W9        30.04  WCI  13
RAPID CITY     FAIR      22  14  71 W5        30.16F
$$

REGIONAL REPORTS...WYOMING/IDAHO/WASHINGTON

CITY           SKY/WX    TMP DP  RH WIND       PRES   REMARKS
GILLETTE       FAIR      25  18  74 W3        30.15F
SHERIDAN       FAIR      22  18  85 CALM      30.14F
BUFFALO WY     FAIR      28  14  55 S7        30.15F WCI  21
CODY           FAIR      26  16  65 CALM      30.17F
YELLOWSTONE LA   N/A      9   6  88 CALM      30.31F
IDAHO FALLS    FOG       22  21  96 N6        30.43S VSB 1/2 WCI  14
SALMON         CLOUDY    28  24  85 CALM      30.42F
BOISE          CLOUDY    27  23  85 SE7       30.48F WCI  19
SPOKANE        CLOUDY    30  29  96 CALM      30.40F FOG
$$

REGIONAL REPORTS...ALBERTA

CITY           SKY/WX    TMP DP  RH WIND       PRES   REMARKS
EDMONTON       CLEAR     36  23  60 SW8       29.86F WCI  29
CALGARY        MOCLDY    39  19  45 SW8       29.95F
LETHBRIDGE     CLEAR     39  19  45 SW15G23   29.99F WCI  31
MEDICINE HAT   MOCLDY    32  25  74 SW12      29.97F WCI  23
$$

REGIONAL REPORTS...SASKATCHEWAN

CITY           SKY/WX    TMP DP  RH WIND       PRES   REMARKS
SWIFT CURRENT  CLOUDY    27  23  86 SW10      29.96F WCI  17
REGINA         PTCLDY    23  21  93 W8        30.01F WCI  14
SASKATOON      MOCLDY    27  23  86 S6        29.97F WCI  20
$$




USA.gov is the U.S. government's official web portal to all federal, state and local government web resources and services.